Regional Weather Roundup
Issued by NWS Bismarck, ND

Home | Current Version | Previous Version | Text Only | Print | Product List | Glossary On
Versions: 1 2 3 4 5 6 7 8 9 10 11 12 13 14 15 16 17 18 19 20 21 22 23 24 25 26 27 28 29 30 31 32 33 34 35 36 37 38 39 40 41 42 43 44 45 46 47 48 49 50
000
ASUS43 KBIS 241320
RWRBIS

NWR BROADCAST TEXT
NATIONAL WEATHER SERVICE BISMARCK ND
800 AM CDT THU JUL 24 2014

NOTE: "FAIR" INDICATES FEW OR NO CLOUDS BELOW 12,000 FEET WITH NO
SIGNIFICANT WEATHER AND/OR OBSTRUCTIONS TO VISIBILITY.


CITY           SKY/WX    TMP DP  RH WIND       PRES   REMARKS
WILLISTON      CLOUDY    64  61  90 SE9       29.89R
MINOT          RAIN      64  60  87 S9        30.03S FOG
MINOT AFB      LGT RAIN  63  63 100 SE7       30.03R
BISMARCK       CLOUDY    68  58  70 SE13      29.93F
DICKINSON      LGT RAIN  62  59  90 E15       29.89F
GARRISON         N/A     65  60  84 NW25G43   30.09R
HETTINGER ARPT CLOUDY    67  59  75 SE20G30   29.85F
JAMESTOWN      PTSUNNY   64  57  78 SE13      30.03F
CARRINGTON     FAIR      63  63 100 SE14G21   30.02S
CROSBY           N/A     63  63 100 E12       29.85F
HARVEY         FAIR      61  61 100 SE7       30.00R
HAZEN          TSTM      66  59  77 NW10G21   30.07R
LINTON         FAIR      66  59  77 SE22G29   29.90F
MANDAN         FAIR      66  57  72 SE13      29.95R
RUGBY          FAIR      63  59  88 SE12      30.02R
STANLEY        LGT RAIN  59  59 100 E17G28    29.86F
TIOGA          FAIR      59  59 100 SE5       29.89F
WATFORD CITY   FAIR      63  63 100 NE7       29.88F
$$

CITY           SKY/WX    TMP DP  RH WIND       PRES   REMARKS
GRAND FORKS    PTSUNNY   63  58  83 SE8       30.05F
GRAND FORKS AF MOSUNNY   63  62  95 SE8       30.06F
DEVILS LAKE    PTSUNNY   64  55  72 SE16      30.02S
FARGO          MOSUNNY   68  57  68 SE10      30.09R
CANDO          FAIR      64  59  82 SE14G22   30.02F
CAVALIER       FAIR      63  57  82 SE5       30.06S
GRAFTON        FAIR      61  59  94 SE7       30.06F
GWINNER        SUNNY     66  63  88 SE10      30.05F
LANGDON        FAIR      61  55  82 SE12      30.03F
ROLLA          FAIR      61  61 100 S10       30.05R
WALHALLA         N/A     64  57  77 SE9         N/A
$$

CITY           SKY/WX    TMP DP  RH WIND       PRES   REMARKS
ABERDEEN       PTSUNNY   65  56  72 SE13      30.02F
MOBRIDGE       MOSUNNY   69  59  70 SE22G31   29.88F
BUFFALO          N/A     69  61  75 SE8       29.78S
RAPID CITY     MOSUNNY   68  65  90 SE14      29.87F
GLASGOW        SUNNY     66  60  81 SE20      29.78F
SIDNEY         CLOUDY    64  61  88 NE5       29.87F
WOLF POINT     PTSUNNY   64  59  83 E8        29.81F
GLENDIVE       MOSUNNY   70  55  60 E13       29.86S
MILES CITY     SUNNY     68  57  68 NE24G36   29.81R
BAKER          MOSUNNY   64  57  78 NE22G31   29.87R
$$

CITY           SKY/WX    TMP DP  RH WIND       PRES   REMARKS
BILLINGS       MOSUNNY   69  55  60 NW12      29.85R
GREAT FALLS    CLEAR     62  51  67 S3        29.93S
REGINA         PTSUNNY   64  61  88 SE21G26   29.79F
ESTEVAN        TSTM      61  61 100 E13       29.90F
$$



USA.gov is the U.S. government's official web portal to all federal, state and local government web resources and services.